Regional Weather Roundup
Issued by NWS Raleigh/Durham, NC

Home | Current Version | Previous Version | Text Only | Print | Product List | Glossary On
Versions: 1 2 3 4 5 6 7 8 9 10 11 12 13 14 15 16 17 18 19 20 21 22 23 24 25 26 27 28 29 30 31 32 33 34 35 36 37 38 39 40 41 42 43 44 45 46 47 48 49 50
000
ASUS42 KRAH 271610
RWRRAH
NORTH CAROLINA WEATHER ROUNDUP
NATIONAL WEATHER SERVICE RALEIGH NC
1200 PM EDT FRI MAR 27 2015

NOTE: "FAIR" INDICATES FEW OR NO CLOUDS BELOW 12,000 FEET WITH NO
SIGNIFICANT WEATHER AND/OR OBSTRUCTIONS TO VISIBILITY.

NCZ001-053-055-056-065-067-271700-
WESTERN NORTH CAROLINA

CITY           SKY/WX    TMP DP  RH WIND       PRES   REMARKS
ASHEVILLE      CLOUDY    44  33  65 NW24G31   29.78S
JEFFERSON      CLOUDY    38  29  71 W9G16     29.75F WCI  31
MORGANTON      CLOUDY    47  43  85 NE3       29.81F
HICKORY        CLOUDY    47  39  74 NE10      29.77S
RUTHERFORDTON  CLOUDY    47  41  78 NE6       29.78F
MOUNT AIRY     CLOUDY    44  39  83 N6        29.81F
BOONE          CLOUDY    37  31  81 NW12G17   29.76S WCI  29
$$

NCZ021-022-025-041-071-084-088-271700-
CENTRAL NORTH CAROLINA

CITY           SKY/WX    TMP DP  RH WIND       PRES   REMARKS
CHARLOTTE      CLOUDY    48  42  80 N10       29.77F
GREENSBORO     LGT RAIN  44  40  85 N10       29.77S
WINSTON-SALEM  LGT RAIN  43  40  89 N8        29.81F
RALEIGH-DURHAM LGT RAIN  46  43  89 NE13G18   29.78S FOG
FORT BRAGG     LGT RAIN  49  46  90 N10G21    29.74R
FAYETTEVILLE   CLOUDY    51  47  86 N15G29    29.73R
BURLINGTON     LGT RAIN  46  44  93 N12G20    29.77F
LAURINBURG     LGT RAIN  51  47  86 NE20G29   29.71F
$$

NCZ011-015-027-028-043-044-047-080-103-271700-
NORTHEASTERN NORTH CAROLINA

CITY           SKY/WX    TMP DP  RH WIND       PRES   REMARKS
ROCKY MT-WILSO RAIN      46  45  96 N14       29.75S FOG
GREENVILLE     CLOUDY    50  48  93 NE10      29.76S FOG
WASHINGTON     CLOUDY    47  45  90 NE12G18   29.73S
ELIZABETH CITY CLOUDY    47  45  93 N14       29.74S FOG
MANTEO         CLOUDY    44  42  95 N18G30    29.72F
CAPE HATTERAS  CLOUDY    47  44  90 N16G26    29.69F
$$

NCZ078-087-090-091-093-098-101-271700-
SOUTHEASTERN NORTH CAROLINA

CITY           SKY/WX    TMP DP  RH WIND       PRES   REMARKS
LUMBERTON      CLOUDY    54  50  86 N17G25    29.71R
GOLDSBORO      HVY RAIN  48  45  87 N13       29.73R VSB 1
KINSTON        LGT RAIN  50  48  93 NE15      29.70F
KENANSVILLE    CLOUDY    53  47  80 N13       29.71R
NEW BERN       CLOUDY    51  47  86 N17G23    29.71R
CHERRY POINT   CLOUDY    53  50  89 NE17      29.69R
BEAUFORT       CLOUDY    63  62  97 W9        29.66S
JACKSONVILLE   CLOUDY    67  59  75 N16       29.65R
WILMINGTON     CLOUDY    71  62  73 W6        29.65F
$$



USA.gov is the U.S. government's official web portal to all federal, state and local government web resources and services.